AEROCUBE 7C (43043 NORAD) Tracking and Keplerian Element Data

This shows tracking and keplerian element data for the satellite.

Feedback or suggestion? Click here.




ElementValue
Catalog43043
NameAEROCUBE 7C
Epoch Orbit5230
Epoch Day315.75379573
Epoch Year2018
RAAN42.1506
Inclination51.64
Eccentricity0.0005486
Argument of Perigee83.4931
Mean Anonmoly276.6678
Mean Motion15.39790013
Decay Rate2.902E-05
L11 43043U 17071G 18315.75379573 .00002902 00000-0 82042-4 0 9997
L22 43043 51.6400 42.1506 0005486 83.4931 276.6678 15.39790013 52301

Live tracking and technical data element details for AEROCUBE 7C (NORAD 43043). AEROCUBE 7C can be tracked NOW for your location showing map with azimuth and elevation plus other details from your city location.

Track the satellite on the map from your city or location and see movement details for azimuth, elevation, latitude, longitude, range, height, and movement on the map or in text.







IsCatalogInMostPopularTable: catalog: 43043, numindb: 133
Update: records affected: 1



GetName: 43043 AEROCUBE 7C

Hit Count: updated at: Mon, 12 Nov 2018 17:49:56 GMT